User: anonymous   Login
Location: Unspecified
(0.0000°N, 0.0000°E)
Time: 15:18:02
(UTC+00:00)
Language:

Falcon 9 debris - Orbit

View from above orbital plane
View from above orbital plane
View from above satellite
View from above satellite

Ground track
Ground track

The orbit data is extracted from the following two-line orbital elements,

1 44298U 19029BR  20221.30721996  .00001840  00000-0  46911-4 0  9990
2 44298  53.0001 229.1319 0002945 251.7102 108.3582 15.45262228 69563
Epoch (UTC): 08 August 2020 07:22:23
Eccentricity: 0.0002945
inclination: 53.0001°
perigee height: 428 km
apogee height: 432 km
right ascension of ascending node: 229.1319°
argument of perigee: 251.7102°
revolutions per day: 15.45262228
mean anomaly at epoch: 108.3582°
orbit number at epoch: 6956

The dashed part of the orbit path shows where the satellite is in the earth's shadow,  

DLR